Regional Weather Roundup
Issued by NWS

Home | Current Version | Previous Version | Graphics & Text | Print | Product List | Glossary On
Versions: 1 2 3 4 5 6 7 8 9 10 11 12 13 14 15 16 17 18 19 20 21 22 23 24 25 26 27 28 29 30 31 32 33 34 35 36 37 38 39 40 41 42 43 44 45 46 47 48 49 50
000
ASUS45 KABQ 022010
RWRNM
WEATHER ROUNDUP FOR NEW MEXICO
NATIONAL WEATHER SERVICE ALBUQUERQUE NM
100 PM MST MON MAR 02 2015

NOTE: "FAIR" MEANS FEW OR NO CLOUDS BELOW 12,000 FEET AGL WITH NO
       SIGNIFICANT WEATHER OR OBSTRUCTIONS TO VISION.

      THIS PRODUCT IS RELEASED AS TWO VERSIONS.  ONE VERSION NEAR
      THE TOP OF THE HOUR CONTAINING PRELIMINARY DATA FROM ALBUQUERQUE
      AND OTHER STATIONS.  A FINAL VERSION WITH ADDITIONAL DATA IS
      ISSUED ABOUT 10 MINUTES AFTER THE HOUR.

NMZ501-503-504-510>518-022100-
NORTHWEST PLATEAU/NORTHCENTRAL MOUNTAINS

CITY           SKY/WX    TMP DP  RH WIND       PRES   REMARKS
FARMINGTON     MOSUNNY   59  35  40 S14G21    29.81F
LOS ALAMOS     CLOUDY    42  29  60 S9G16     29.97F
SANTA FE       CLOUDY    45  31  58 SE17      29.97F
TAOS           CLOUDY    41  28  60 W6        29.97F
ANGEL FIRE     CLOUDY    44  28  51 SW7G24    29.97F

$$
NMZ402-403-502-505>509-022100-
WESTCENTRAL MOUNTAINS/SOUTHWEST MOUNTAINS

CITY           SKY/WX    TMP DP  RH WIND       PRES   REMARKS
GALLUP           N/A     52  32  46 SW22G33   29.85F
GRANTS         PTSUNNY   58  28  31 S25G43    29.90F
SILVER CITY    CLOUDY    55  36  47 SW12      30.04F

$$
NMZ407-409-411-412-022100-
SOUTHERN DESERTS

CITY           SKY/WX    TMP DP  RH WIND       PRES   REMARKS
LORDSBURG      MOCLDY    61  43  51 S21G30    29.98F
DEMING         CLOUDY    64  40  41 S20G26    29.98F
LAS CRUCES     CLOUDY    59  32  35 SE10      30.01F
HOLLOMAN AFB   CLOUDY    61  34  36 S28       29.97F
ALAMOGORDO     CLOUDY    61  36  39 SE25G32   30.00F
T OR C         CLOUDY    62  33  33 S16G28    29.96F

$$
NMZ519>523-022100-
CENTRAL VALLEYS/CENTRAL HIGHLANDS

CITY           SKY/WX    TMP DP  RH WIND       PRES   REMARKS
ALBUQUERQUE    CLOUDY    53  33  46 S3        29.93F
DOUBLE EAGLE   CLOUDY    52  32  46 SE13      29.94F
MORIARTY ARPT  FAIR      45  31  59 SE9       30.00F
CLINES CORNERS CLOUDY    40  33  76 S8        29.99F WCI  34
BELEN          FAIR      61  29  29 S30G37    29.90F
SOCORRO          N/A     64  31  29 S33G40    29.92F

$$
NMZ524>526-539-540-022100-
SOUTHCENTRAL MOUNTAINS

CITY           SKY/WX    TMP DP  RH WIND       PRES   REMARKS
RUIDOSO        CLOUDY    55  32  41 SW26G55   30.04F

$$
NMZ527>531-022100-
NORTHEAST HIGHLANDS/NORTHEAST PLAINS

CITY           SKY/WX    TMP DP  RH WIND       PRES   REMARKS
LAS VEGAS      CLOUDY    31  28  89 S17       29.99F WCI  19
RATON          CLOUDY    29  27  92 SW5       29.98F WCI  24
CLAYTON        CLOUDY    32  28  85 SW23G29   29.99F WCI  19

$$
NMZ532>537-022100-
EASTCENTRAL PLAINS

CITY           SKY/WX    TMP DP  RH WIND       PRES   REMARKS
TUCUMCARI      CLOUDY    35  31  85 SW13      30.08F WCI  26
CANNON AFB     CLOUDY    34  33  96 S14       30.11F FOG     WCI  25
CLOVIS AIRPORT CLOUDY    32  30  93 S14       30.11F WCI  22

$$
NMZ028-029-538-022100-
SOUTHEAST PLAINS

CITY           SKY/WX    TMP DP  RH WIND       PRES   REMARKS
ROSWELL        CLOUDY    38  33  82 S16       30.12F WCI  29
ARTESIA        CLOUDY    37  37 100 SE14G21   30.13F WCI  29
CARLSBAD       CLOUDY    39  33  79 SE9       30.13F WCI  33
HOBBS          CLOUDY    36  36 100 SE8       30.16F WCI  29


$$



USA.gov is the U.S. government's official web portal to all federal, state and local government web resources and services.